Tracking 19219 objects as of 22-Jul-2018
HD Live streaming from Space Station
objects crossing your sky now

FENGYUN 1C DEB

Track FENGYUN 1C DEB now!
10-day predictions


NORAD ID: 31320
Int'l Code: 1999-025BPY
Perigee: 806.4 km
Apogee: 988.6 km
Inclination: 98.3 °
Period: 102.8 minutes
Semi major axis: 7268 km
RCS: 0.0097 m2 (small)
Launch date: May 10, 1999
Source: People's Republic of China (PRC)
Launch site: Taiyaun Space Center, China (TSC)

Note: This is SATELLITE DEBRIS
aabbcc
Your satellite tracking list
Your tracking list is empty




NASA's NSSDC Master Catalog

Two Line Element Set (TLE):
1 31320U 99025BPY 18199.78706263 +.00000590 +00000-0 +39230-3 0  9995
2 31320 098.3027 193.0935 0125357 243.2395 115.5901 14.00997923223532
Source of the keplerian elements: AFSPC